カタログに戻る

STARLINK-31121

運用中通信VLEO
NORAD 58685·PAYLOAD·🇺🇸 United States

打ち上げ Dec 29, 2023 から Cape Canaveral Space Force Station

Loading…

次のパス (今後24時間)

TLE

最新Source: CelesTrak SupGP

元期: Sep 14, 2026, 13:37 UTC

1 58685C 23211U   26257.56784722  .00021857  00000+0  79147-3 0  2574
2 58685  43.0027  98.2233 0001787 264.3647 156.8216 15.27574743    17

AllMySatでSTARLINK-31121をリアルタイム追跡

Download on the App Store